Back to catalog

ONEWEB-0321

AliveCommunicationsPO
NORAD 49191·PAYLOAD·🇬🇧 United Kingdom

Launched Sep 14, 2021 from Baikonur Cosmodrome

Loading…

Next Passes (next 24 hours)

TLE

FreshSource: CelesTrak SupGP

Epoch: Sep 14, 2026, 13:00 UTC

1 49191C 21083F   26257.54180972 -.00000641  00000+0 -15783-2 0  2571
2 49191  87.9143 256.6098 0002063  83.9298  27.9911 13.20776918    18

Track ONEWEB-0321 in real time with AllMySat

Download on the App Store